User: anonymous   Login
Location: Bouchavesnes-Bergen
(49.9859°N, 2.9203°E)
Time: 22:43:55
(UTC+00:00)
Language:

USA 229 - Orbit

View from above orbital plane
View from above orbital plane
View from above satellite
View from above satellite

Ground track
Ground track

The orbit data is extracted from the following two-line orbital elements,

1 37386U 11014A   21113.80356566 0.00000000  00000-0  00000-0 0    04
2 37386  63.4444  36.0331 0197972 358.0094   1.9906 13.40822463    02
Epoch (UTC): 23 April 2021 19:17:08
Eccentricity: 0.0197972
inclination: 63.4444°
perigee height: 958 km
apogee height: 1254 km
right ascension of ascending node: 36.0331°
argument of perigee: 358.0094°
revolutions per day: 13.40822463
mean anomaly at epoch: 1.9906°
orbit number at epoch: 0

The dashed part of the orbit path shows where the satellite is in the earth's shadow,  

DLR